Location: Unspecified
(48.7670°N, 0.0000°E)
Time: 02:20:28
(UTC+00:00)

Altair - Pass Details

Date: 29 June 2019
Orbit: 1501 x 1683 km, 47.2° (Epoch: 14 October)

Event Time Altitude Azimuth Distance (km) Brightness Sun altitude
Rises 15:33:19 0° 179° (S) 4,635 10.1 41.7°
Reaches altitude 10° 15:37:51 10° 159° (SSE) 3,677 9.5 41.0°
Maximum altitude 15:42:54 16° 126° (SE) 3,250 9.0 40.2°
Drops below altitude 10° 15:48:01 10° 92° (E) 3,753 9.2 39.3°
Sets 15:52:42 0° 73° (ENE) 4,778 9.6 38.6°
